Weather History for Burns, OR

Change the Weather History Date:

Wednesday, December 12, 2012

  Actual Average Record
Temperature  
Mean Temperature 30 °F 24 °F  
Max Temperature 36 °F 34 °F 55 °F (1995)
Min Temperature 23 °F 14 °F -14 °F (1985)
Degree Days  
Heating Degree Days 35 41  
Month to date heating degree days 352 476  
Since 1 July heating degree days 2026 2477  
Cooling Degree Days 0 0  
Month to date cooling degree days 0 0  
Year to date cooling degree days 309 215  
Moisture  
Dew Point 27 °F    
Average Humidity 85    
Maximum Humidity 100    
Minimum Humidity 70    
Precipitation  
Precipitation T in 0.05 in 0.59 in (1969)
Month to date precipitation 0.68 0.59  
Year to date precipitation 9.28 9.96  
Sea Level Pressure  
Sea Level Pressure 29.77 in    
Wind  
Wind Speed 5 mph (West)    
Max Wind Speed 12 mph    
Max Gust Speed 14 mph    
Visibility 9 miles    
Events Fog    
T = Trace of Precipitation, MM = Missing Value Source: NWS Daily Summary

Daily Weather History Graph

Daily Weather History Graph

Search for Another Location

Airport:

Trip Planner

Search our weather history database for the weather conditions in past years. The results will help you decide how hot, cold, wet, or windy it might be!

Date:

Astronomy

Dec. 12, 2012 Rise Set
Actual Time 7:20 AM PST 4:19 PM PST
Civil Twilight 6:47 AM PST 4:52 PM PST
Nautical Twilight 6:11 AM PST 5:28 PM PST
Astronomical Twilight 5:36 AM PST 6:03 PM PST
Moon 6:29 AM PST (12/12) 4:01 PM PST (12/12)
Length of Visible Light 10h 04m
Length of Day
8h 58m
Waning Crescent, 0% of the Moon is Illuminated
Dec 12
Waning Crescent
Dec 13
New
Dec 19
First Quarter
Dec 28
Full
Jan 4
Last Quarter

Hourly Weather History & Observations

Time (PST) Temp. Windchill Dew Point Humidity Pressure Visibility Wind Dir Wind Speed Gust Speed Precip Events Conditions
12:53 AM 32.0 °F 28.7 °F 30.0 °F 92% 29.62 in 2.5 mi North 3.5 mph - 0.00 in   Mostly Cloudy
12:56 AM 30.2 °F 25.4 °F 30.2 °F 100% 29.60 in 1.0 mi North 4.6 mph - N/A   Overcast
1:03 AM 30.2 °F 24.3 °F 30.2 °F 100% 29.60 in 0.5 mi North 5.8 mph - N/A Fog Light Freezing Fog
1:22 AM 30.2 °F 26.7 °F 30.2 °F 100% 29.60 in 1.5 mi NE 3.5 mph - N/A   Overcast
1:28 AM 30.2 °F - 30.2 °F 100% 29.60 in 3.0 mi Calm Calm - N/A   Overcast
1:53 AM 30.9 °F - 30.0 °F 96% 29.63 in 8.0 mi Calm Calm - N/A   Overcast
2:53 AM 32.0 °F 26.4 °F 30.0 °F 92% 29.64 in 10.0 mi SW 5.8 mph - N/A   Mostly Cloudy
3:53 AM 30.9 °F 24.3 °F 28.9 °F 92% 29.66 in 10.0 mi SSW 6.9 mph - N/A   Overcast
4:53 AM 32.0 °F 24.8 °F 28.9 °F 88% 29.68 in 10.0 mi WSW 8.1 mph - N/A   Overcast
5:53 AM 30.9 °F 25.2 °F 28.9 °F 92% 29.70 in 10.0 mi SW 5.8 mph - N/A   Overcast
6:53 AM 30.0 °F 24.1 °F 27.0 °F 88% 29.72 in 10.0 mi West 5.8 mph - 0.00 in   Overcast
7:53 AM 28.0 °F 20.8 °F 25.0 °F 88% 29.77 in 10.0 mi South 6.9 mph - N/A   Mostly Cloudy
8:53 AM 30.0 °F 25.2 °F 27.0 °F 88% 29.78 in 10.0 mi NW 4.6 mph - N/A   Overcast
9:53 AM 32.0 °F 26.4 °F 27.0 °F 82% 29.81 in 10.0 mi WSW 5.8 mph - N/A   Overcast
10:53 AM 33.1 °F - 26.1 °F 75% 29.82 in 10.0 mi Calm Calm - N/A   Mostly Cloudy
11:53 AM 35.1 °F - 26.1 °F 70% 29.80 in 10.0 mi Calm Calm - N/A   Overcast
12:53 PM 33.1 °F 28.7 °F 27.0 °F 78% 29.80 in 10.0 mi South 4.6 mph - N/A   Overcast
1:53 PM 34.0 °F 26.0 °F 27.0 °F 75% 29.80 in 10.0 mi South 10.4 mph - N/A   Overcast
2:53 PM 33.1 °F 26.1 °F 26.1 °F 75% 29.81 in 10.0 mi South 8.1 mph - N/A   Overcast
3:53 PM 32.0 °F - 26.1 °F 79% 29.84 in 10.0 mi Calm Calm - N/A   Overcast
4:53 PM 30.0 °F 26.5 °F 26.1 °F 85% 29.86 in 10.0 mi East 3.5 mph - N/A   Overcast
5:53 PM 28.9 °F 23.9 °F 27.0 °F 92% 29.86 in 10.0 mi NE 4.6 mph - N/A   Overcast
6:53 PM 28.9 °F 25.2 °F 27.0 °F 92% 29.87 in 10.0 mi NNW 3.5 mph - N/A   Overcast
7:53 PM 28.0 °F 24.2 °F 26.1 °F 92% 29.89 in 10.0 mi West 3.5 mph - N/A   Overcast
8:53 PM 27.0 °F 21.6 °F 25.0 °F 92% 29.89 in 10.0 mi SW 4.6 mph - N/A   Overcast
9:53 PM 27.0 °F 20.5 °F 24.1 °F 89% 29.90 in 10.0 mi West 5.8 mph - N/A   Overcast
10:53 PM 25.0 °F 20.7 °F 21.0 °F 85% 29.91 in 10.0 mi West 3.5 mph - N/A   Partly Cloudy
11:53 PM 24.1 °F 17.0 °F 21.0 °F 88% 29.92 in 10.0 mi West 5.8 mph - N/A   Scattered Clouds